Regional Weather Roundup
Issued by NWS San Angelo, TX

Home | Current Version | Previous Version | Text Only | Print | Product List | Glossary On
Versions: 1 2 3 4 5 6 7 8 9 10 11 12 13 14 15 16 17 18 19 20 21 22 23 24 25 26 27 28 29 30 31 32 33 34 35 36 37 38 39 40 41 42 43 44 45 46 47 48 49 50
000
ASUS44 KSJT 251310
RWRSJT
WEST CENTRAL TEXAS REGIONAL WEATHER ROUNDUP
NATIONAL WEATHER SERVICE SAN ANGELO TX
800 AM CDT THU MAY 25 2017

NOTE: "FAIR" INDICATES FEW OR NO CLOUDS BELOW 12,000 FEET WITH NO
SIGNIFICANT WEATHER AND/OR OBSTRUCTIONS TO VISIBILITY.

TXZ049-054-064>066-071>073-076>078-098-099-113-114-127-128-139-140-
154-155-168>170-251400
...LOCATIONS ACROSS WEST CENTRAL TEXAS...

CITY           SKY/WX    TMP DP  RH WIND       PRES   REMARKS
SAN ANGELO     SUNNY     68  46  45 S17G32    29.70R
ABILENE        SUNNY     67  46  47 S18G31    29.66S
DYESS AFB      SUNNY     70  47  44 S20G28    29.63R
JUNCTION       SUNNY     68  50  52 SW9       29.77R
SWEETWATER     SUNNY     68  45  43 S20       29.68S
BROWNWOOD      SUNNY     63  52  67 S6        29.72R
COLEMAN        SUNNY     65  48  53 S5        29.72R
SONORA         SUNNY     68  50  52 S10       29.81R
OZONA            N/A     63  50  63 S9G16     29.79R
BRADY          NOT AVBL
$$

TEXAS PANHANDLE/OKLAHOMA PANHANDLE

CITY           SKY/WX    TMP DP  RH WIND       PRES   REMARKS
AMARILLO       SUNNY     64  42  44 SW9       29.61S
BORGER         SUNNY     61  43  51 S8        29.58F
CANADIAN       SUNNY     57  50  78 S8        29.59S
DALHART        CLOUDY    63  45  51 W15       29.63R
DUMAS          SUNNY     60  43  51 W12       29.60R
GUYMON         NOT AVBL
HEREFORD       SUNNY     65  39  38 W10       29.67R
PAMPA          SUNNY     59  48  65 S8        29.60F
PERRYTON       SUNNY     56  49  77 S15       29.56R
$$

SOUTHERN PANHANDLE/SOUTH PLAINS/ROLLING PLAINS

CITY           SKY/WX    TMP DP  RH WIND       PRES   REMARKS
LUBBOCK        MOSUNNY   62  43  49 W13       29.65S
SNYDER         SUNNY     63  46  52 S10       29.68R
CHILDRESS      MOSUNNY   62  48  60 S13       29.59F
SEMINOLE       SUNNY     62  46  55 W12       29.73R
$$

PERMIAN BASIN

CITY           SKY/WX    TMP DP  RH WIND       PRES   REMARKS
MIDLAND        SUNNY     66  47  50 S13       29.71R
ODESSA           N/A     68  46  45 SW10      29.72R
WINK           CLOUDY    61  47  59 SE5       29.71R
$$

FAR WEST/SOUTHWEST MOUNTAINS/TRANS PECOS

CITY           SKY/WX    TMP DP  RH WIND       PRES   REMARKS
ALPINE         MOSUNNY   73  32  22 S8        29.94R
DRYDEN           N/A     65  53  65 CALM      29.75R
EL PASO        PTSUNNY   79  20  11 W13       29.84R
FORT STOCKTON  SUNNY     74  39  28 SW16      29.75R
GUADALUPE PASS CLOUDY    66  18  15 SW9       29.94R
MARFA          SUNNY     62  34  35 CALM        N/A
PECOS          MOSUNNY   61  40  44 CALM      29.72S
$$

DALLAS/FORT WORTH METROPLEX

CITY           SKY/WX    TMP DP  RH WIND       PRES   REMARKS
DFW AIRPORT    SUNNY     66  54  65 SE12      29.70S
FTW MEACHAM    SUNNY     65  53  65 SE12      29.69F
DAL-EXECUTIVE  SUNNY     63  54  72 SE7       29.73R
GRAND PRAIRIE  SUNNY     66  52  59 SE5       29.73R
ADDISON        NOT AVBL
MESQUITE       SUNNY     63  52  67 SE8       29.74S
LANCASTER      SUNNY     61  54  78 SE6       29.75S
$$

NORTH CENTRAL TEXAS

CITY           SKY/WX    TMP DP  RH WIND       PRES   REMARKS
SHRMAN/DENISON SUNNY     64  49  59 SE13G20   29.73S
GAINESVILLE    SUNNY     62  51  66 SE10G16   29.72F
BRIDGEPORT     SUNNY     61  52  71 SE9       29.70S
DENTON         SUNNY     63  54  72 SE9       29.70S
WAXAHACHIE     SUNNY     61  54  78 SE6       29.75S
GRANBURY       SUNNY     65  54  66 SE7       29.70S
$$

WESTERN NORTH TEXAS

CITY           SKY/WX    TMP DP  RH WIND       PRES   REMARKS
WICHITA FALLS  MOSUNNY   61  50  67 SE13      29.64R
VERNON         SUNNY     62  48  59 SE12      29.63S
BRECKENRIDGE   SUNNY     73  44  34 SW14G24   29.65R
COMANCHE       SUNNY     70  48  45 S16G28    29.69S
$$

CENTRAL AND SOUTH CENTRAL TEXAS

CITY           SKY/WX    TMP DP  RH WIND       PRES   REMARKS
AUSTIN/BERGSTM SUNNY     68  57  68 S15G24    29.78R
WACO           SUNNY     67  55  65 S13       29.73S
HILLSBORO      SUNNY     66  54  63 SE12      29.73S
TEMPLE         SUNNY     65  55  70 S9        29.75R
KILLEEN-GRAY   SUNNY     69  50  51 S18       29.73R
FORT HOOD      SUNNY     68  50  52 S10       29.71R
GEORGETOWN     SUNNY     68  50  52 S12G17    29.75R
LAGO VISTA     FAIR      69  50  50 SW14G22   29.79R
SAN MARCOS     SUNNY     63  55  77 SW10      29.81R
NEW BRAUNFELS  SUNNY     65  58  78 SW9       29.79R
RANDOLPH AFB   SUNNY     65  58  77 SW8       29.81R
SAN ANTONIO    SUNNY     67  54  63 S9        29.82R
STINSON        SUNNY     66  57  72 SW3       29.80R
PLEASANTON     NOT AVBL
LA GRANGE      SUNNY     71  62  75 S6        29.78S
GIDDINGS       SUNNY     65  58  79 SW9       29.80R
$$

EAST TEXAS

CITY           SKY/WX    TMP DP  RH WIND       PRES   REMARKS
PARIS          MOSUNNY   61  52  72 SE10      29.79R
CLARKSVILLE    NOT AVBL
TYLER          SUNNY     63  52  67 SE10      29.79R
LONGVIEW       MOSUNNY   63  55  75 S10       29.80F
PALESTINE      SUNNY     64  56  76 SE7       29.81R
NACOGDOCHES    MOSUNNY   61  55  82 SE7       29.81R
$$

TEXAS HILL COUNTRY AND EDWARDS PLATEAU

CITY           SKY/WX    TMP DP  RH WIND       PRES   REMARKS
LLANO          SUNNY     70  54  56 S7        29.79R
HORSESHOE BAY  NOT AVBL
KERRVILLE      SUNNY     64  54  69 S12       29.82R
FREDERICKSBRG  SUNNY     65  49  55 S10G18    29.81R
ROCKSPRINGS    SUNNY     64  54  68 S15       29.83S
HONDO          SUNNY     61  56  83 N6        29.82R
UVALDE         SUNNY     61  56  83 CALM      29.80S
DEL RIO        SUNNY     64  54  69 E9        29.74R
$$

SOUTHEAST TEXAS

CITY           SKY/WX    TMP DP  RH WIND       PRES   REMARKS
COLLEGE STN    SUNNY     67  61  81 S7        29.79R
CALDWELL       NOT AVBL
CROCKETT       MOSUNNY   63  55  77 SE5       29.84R
BRENHAM        SUNNY     70  62  76 S9        29.80S
HUNTSVILLE     SUNNY     69  60  73 S10       29.80R
CONROE         SUNNY     64  59  83 SE3       29.81R
HOUSTON BUSH   SUNNY     71  63  75 CALM      29.81R
HOUSTON HOBBY  SUNNY     71  63  75 S7        29.81R
PERLAND        SUNNY     73  63  70 S5        29.82R
WHARTON        SUNNY     69  63  82 S6        29.82R
$$

THE UPPER TEXAS COAST

CITY           SKY/WX    TMP DP  RH WIND       PRES   REMARKS
ORANGE         MOSUNNY   69  67  92 CALM      29.85R
PORT ARTHUR    SUNNY     72  65  78 S5        29.82R
GALVESTON      SUNNY     78  64  61 S14       29.82R
ANGLETON       SUNNY     73  66  78 S8        29.81R
BAY CITY       SUNNY     69  65  88 S6        29.81R
$$

TEXAS COASTAL BEND, RIO GRANDE PLAINS DEEP SOUTH TEXAS

CITY           SKY/WX    TMP DP  RH WIND       PRES   REMARKS
VICTORIA       SUNNY     71  63  75 SW8       29.81R
BEEVILLE       FAIR      69  64  84 S9        29.81R
ROCKPORT       SUNNY     78  63  59 S13G21    29.79S
PORT ARANSAS   SUNNY     77  65  65 S17G23    29.80S
PORT LAVACA    SUNNY     72  67  86 CALM      29.81R
CORPUS CHRISTI MOSUNNY   66  64  93 CALM      29.81R
KINGSVILLE NAS MOSUNNY   70  66  87 S8        29.80R
COTULLA        SUNNY     67  53  61 SE6       29.79R
LAREDO         SUNNY     71  62  73 SE16G22   29.78R
BROWNSVILLE    SUNNY     76  68  76 SE6       29.82R
PORT ISABEL    MOSUNNY   76  67  73 SE9       29.81R
HEBBRONVILLE   SUNNY     64  58  81 S5        29.81R
MCALLEN        SUNNY     72  65  78 SE10      29.80R
WESLACO        SUNNY     73  65  76 SE7       29.79S
FALFURRIAS     SUNNY     68  61  79 SE5       29.80R
EDINBURG       SUNNY     71  65  79 S5        29.80R
$$



USA.gov is the U.S. government's official web portal to all federal, state and local government web resources and services.